Friday Harbor, WA
on Thursday, November 22, 2012

Thursday
Previous Day Next Day
Daily Summary
 ActualAverageRecord
Temperature
Mean Temperature °F °F  
Max Temperature 48°F 46°F 52°F (2002)
Min Temperature 37°F 38°F 21°F (2010)
Degree Days
Heating Degree Days 22    
Moisture
Dew Point 38°F   
Average Humidity 80    
Maximum Humidity 96    
Minimum Humidity 63    
Precipitation
Precipitation 0.00 in in in ()
Wind
Wind Speed 6 mph   
Max Wind Speed 18 mph   
Max Gust Speed 30 mph   
Visibility 10 miles   
Events Rain   
Averages and records for this station are not official NWS values.
Key: T is trace of precipitation, MM is missing value
Source: NWS Daily Summary
Seasonal Weather Averages
Time(PST)TemperatureDew PointHumidity Pressure Visibility Wind DirectionWind SpeedGust SpeedPrecipitationEvents Conditions
12:53 AM 37.0°F 36.0°F 96% 30.30 in 10.0 miles Calm Calm - N/A   Partly Cloudy
1:04 AM 39.2°F 37.4°F 93% 30.30 in 10.0 miles Calm Calm - N/A   Scattered Clouds
1:08 AM 39.2°F 37.4°F 93% 30.30 in 10.0 miles Calm Calm - N/A   Mostly Cloudy
1:37 AM 42.8°F 39.2°F 87% 30.30 in 10.0 miles SE 6.9 mph - N/A   Mostly Cloudy
1:53 AM 42.1°F 39.9°F 92% 30.31 in 10.0 miles SSE 5.8 mph - N/A   Mostly Cloudy
2:03 AM 42.8°F 39.2°F 87% 30.31 in 10.0 miles SE 5.8 mph - N/A   Mostly Cloudy
2:34 AM 42.8°F 39.2°F 87% 30.31 in 10.0 miles SE 8.1 mph - N/A   Partly Cloudy
2:53 AM 43.0°F 39.9°F 89% 30.32 in 10.0 miles SE 8.1 mph - N/A   Partly Cloudy
3:22 AM 42.8°F 39.2°F 87% 30.32 in 10.0 miles East 5.8 mph - N/A   Mostly Cloudy
3:53 AM 43.0°F 39.9°F 89% 30.33 in 10.0 miles East 8.1 mph - N/A   Overcast
4:45 AM 42.8°F 39.2°F 87% 30.34 in 10.0 miles ENE 5.8 mph - N/A   Overcast
4:53 AM 42.1°F 39.0°F 89% 30.34 in 10.0 miles East 4.6 mph - N/A   Mostly Cloudy
5:05 AM 42.8°F 39.2°F 87% 30.34 in 10.0 miles East 5.8 mph - N/A   Scattered Clouds
5:33 AM 42.8°F 39.2°F 87% 30.35 in 10.0 miles East 8.1 mph - N/A   Mostly Cloudy
5:53 AM 42.1°F 39.0°F 89% 30.35 in 10.0 miles East 5.8 mph - N/A   Scattered Clouds
6:53 AM 42.1°F 39.0°F 89% 30.35 in 10.0 miles East 9.2 mph - N/A   Partly Cloudy
7:53 AM 43.0°F 39.0°F 86% 30.35 in 10.0 miles East 10.4 mph - N/A   Overcast
8:53 AM 44.1°F 37.0°F 76% 30.35 in 10.0 miles East 12.7 mph 18.4 mph N/A   Partly Cloudy
9:53 AM 45.0°F 37.9°F 76% 30.33 in 10.0 miles ESE 10.4 mph 18.4 mph N/A   Mostly Cloudy
10:53 AM 46.0°F 37.9°F 73% 30.32 in 10.0 miles East 12.7 mph - N/A   Overcast
11:53 AM 46.0°F 37.0°F 71% 30.32 in 10.0 miles East 11.5 mph - N/A   Overcast
12:53 PM 46.9°F 37.0°F 68% 30.32 in 10.0 miles East 4.6 mph - N/A   Overcast
1:53 PM 46.0°F 37.9°F 73% 30.30 in 10.0 miles ESE 6.9 mph - N/A   Overcast
2:53 PM 46.0°F 37.0°F 71% 30.30 in 10.0 miles NE 3.5 mph - N/A   Overcast
3:53 PM 45.0°F 37.9°F 76% 30.28 in 10.0 miles NE 4.6 mph - N/A   Overcast
4:53 PM 46.0°F 37.0°F 71% 30.25 in 10.0 miles East 6.9 mph - N/A   Overcast
5:53 PM 46.9°F 36.0°F 66% 30.21 in 10.0 miles East 15.0 mph 19.6 mph N/A   Overcast
6:53 PM 46.9°F 36.0°F 66% 30.19 in 10.0 miles East 16.1 mph - N/A   Overcast
7:53 PM 48.0°F 36.0°F 63% 30.17 in 10.0 miles East 16.1 mph 23.0 mph N/A   Overcast
8:53 PM 48.0°F 36.0°F 63% 30.16 in 10.0 miles East 11.5 mph 18.4 mph N/A   Overcast
9:53 PM 48.0°F 37.0°F 66% 30.14 in 10.0 miles East 16.1 mph 21.9 mph 0.00 in Rain Light Rain
10:53 PM 46.9°F 39.0°F 74% 30.13 in 10.0 miles ESE 17.3 mph 25.3 mph 0.00 in Rain Light Rain
11:53 PM 48.0°F 37.9°F 68% 30.11 in 10.0 miles ESE 18.4 mph 29.9 mph 0.00 in   Overcast
Moon Phase
Nov. 22 Nov. 28 Dec. 06 Dec. 13 Dec. 20
Sunrise:07:31 AM (PST) Moon Rise:01:34 PM (PST)11/22
Sunset:04:24 PM (PST) Moon Set:01:32 AM (PST)11/22

Copyright © 2014 The Weather Underground, Inc.